www.pogodaiklimat.ru

Погода и климат >> Архив погоды >> Азербайджан >> Гянджа


АРХИВ ПОГОДЫ в Гяндже

Время (UTC), дата Ветер
(напр.,м/с)
 
Видим.   Явления Облачность Т
(С)
Тd
(С)
f
(%)
Тe
(С)
Тes
(С)
Комфортность P
(гПа)
Po
(гПа)
Тmin
(С)
Tmax
(С)
R
(мм)
R24
(мм)
S
(см)
21 10.06 штиль 0 10 км 6/0
[Ci ing]
+21.9 +16.7 72 +26 +26 душно 1015.6 980.0
00 11.06 З 1 10 км ясно +18.9 +15.5 81 +21 +21 комфорт 1015.0 979.8
03 11.06 штиль 0 50 км 3/0
[Ci sp]
+19.9 +15.7 77 +22 +24 комфорт 1015.2 979.4
06 11.06 СЗ 2 50 км 8/0
[Cs]
+25.1 +16.4 59 +29 +36 душно 1015.4 979.7 +18.9
09 11.06 СВ 3 20 км 8/0
[Ac As Ci fib]
+29.9 +15.9 43 +33 +40 душно 1013.5 978.9
12 11.06 ЮВ 4 10 км гроза, ливневой дождь 10/10 600 м
[Cb cap]
+26.4 +10.6 37 +27 +27 жарко 1014.0 979.0
15 11.06 СЗ 2 10 км {гроза, ливн. осадки} 10/10 1000 м
[Sc]
+25.3 +14.0 50 +28 +28 жарко 1011.1 976.0
18 11.06 З 1 50 км 9/0
[As op]
+24.4 +15.3 57 +27 +27 жарко 1012.1 976.9 +30.6 0.0
21 11.06 Ю 1 50 км 9/0
[As op]
+23.0 +15.1 61 +27 +27 душно 1010.0 974.8
00 12.06 З 1 50 км ясно +20.0 +15.2 74 +23 +23 комфорт 1009.9 974.3
03 12.06 З 1 50 км ясно +22.5 +14.3 60 +26 +28 жарко 1010.0 974.6
06 12.06 штиль 0 50 км ясно +27.3 +15.1 47 +30 +47 душно 1009.1 974.3 +20.0
09 12.06 В 1 50 км ясно +30.5 +15.3 40 +33 +57 опасность
солнечного
удара
1007.4 973.1
12 12.06 В 2 20 км 6/6 1000 м
[Cu med, cong]
+30.9 +15.9 40 +34 +39 душно 1005.4 971.2
15 12.06 В 3 20 км 6/6 1000 м
[Cu med, cong]
+30.3 +16.4 43 +34 +34 очень
душно
1004.7 970.5
18 12.06 В 5 10 км гроза без осадков 10/10 1000 м
[Cb cap]
+28.1 +16.9 51 +32 +32 душно 1006.0 971.4 +32.4
21 12.06 В 2 10 км {гроза} 4/4 1000 м
[Cu med, cong]
+24.7 +14.7 54 +27 +27 жарко 1006.4 971.5
00 13.06 С 1 10 км 6/6 1000 м
[Sc]
+21.0 +13.9 64 +25 +25 комфорт 1008.1 972.7
03 13.06 З 1 20 км гроза без осадков 10/10 1000 м
[Cb cap]
+20.5 +13.5 64 +24 +24 комфорт 1010.8 975.2
06 13.06 Ю 1 10 км {гроза} 3/0
[Cs]
+25.9 +9.9 36 +27 +41 жарко 1010.9 975.8 +21.0
09 13.06 СЗ 2 10 км 3/3 1000 м
[Cu med, cong Ci fib]
+29.5 +11.3 32 +30 +44 жарко 1008.6 974.1
12 13.06 штиль 0 10 км 4/4 1000 м
[Cu med, cong Ci fib]
+31.9 +10.2 26 +31 +41 жарко 1006.4 972.2
15 13.06 СВ 2 10 км 6/6 1000 м
[Cu med, cong Ac trans Ci fib]
+30.3 +12.8 34 +31 +32 жарко 1005.8 971.4
18 13.06 З 1 10 км ясно +26.8 +11.5 38 +28 +28 жарко 1007.4 972.6 +32.5
21 13.06 СЗ 1 10 км 3/0
[Ac trans]
+24.0 +12.3 48 +26 +26 жарко 1009.1 974.0
00 14.06 штиль 0 10 км ясно +20.4 +11.1 55 +22 +22 комфорт 1010.7 975.0
03 14.06 СЗ 1 20 км 3/0
[Ac trans]
+23.3 +12.5 51 +26 +28 жарко 1010.0 974.8
06 14.06 З 1 20 км 4/0
[As op]
+28.8 +16.7 48 +32 +43 душно 1010.5 975.9 +20.4
09 14.06 В 1 50 км ясно +31.4 +14.9 37 +34 +57 опасность
солнечного
удара
1010.0 975.6
12 14.06 В 5 20 км 4/0
[Ac cast]
+33.9 +6.1 18 +32 +36 жарко 1008.2 974.1
15 14.06 В 4 20 км 5/0
[Ci fib]
+32.1 +7.7 22 +31 +31 жарко 1008.8 974.5
18 14.06 ЮЗ 2 20 км 3/0
[Ac cuf]
+28.0 +9.3 31 +28 +28 жарко 1010.0 975.2 +34.4
21 14.06 ЮЗ 2 20 км ясно +26.2 +8.0 32 +26 +26 жарко 1010.5 975.4
00 15.06 СЗ 1 20 км 1/0
[Ci fib]
+22.3 +10.5 47 +24 +24 комфорт 1011.5 976.1
03 15.06 штиль 0 20 км 3/3 1000 м
[Cu hum]
+21.9 +12.0 53 +24 +26 комфорт 1012.9 977.4
06 15.06 СЗ 1 50 км 5/0
[Ci]
+26.4 +11.3 39 +28 +41 жарко 1013.1 978.1 +21.8
09 15.06 Ю 1 50 км 8/0
[Cs]
+31.2 +12.2 31 +32 +52 опасность
солнечного
удара
1011.5 977.0
12 15.06 В 2 50 км 5/0
[Cs]
+32.6 +10.3 25 +32 +43 жарко 1009.6 975.3
15 15.06 В 2 20 км 9/0
[As op]
+30.2 +10.5 30 +30 +31 жарко 1008.9 974.5
18 15.06 В 2 10 км 8/0
[As op]
+26.9 +12.3 40 +28 +28 жарко 1009.6 974.8 +32.9
21 15.06 В 2 10 км ясно +22.7 +11.9 50 +25 +25 комфорт 1010.4 975.0
00 16.06 В 1 10 км ясно +20.0 +9.9 52 +22 +22 комфорт 1011.1 975.3
03 16.06 штиль 0 50 км ясно +20.0 +12.3 61 +22 +24 комфорт 1011.4 975.7
06 16.06 СЗ 2 20 км 5/5 1000 м
[Cu med, cong Ac trans]
+24.6 +13.3 49 +27 +33 жарко 1011.6 976.4 +17.7
09 16.06 З 1 20 км 3/3 1000 м
[Cu med, cong]
+30.1 +11.8 32 +31 +47 жарко 1008.6 974.2
12 16.06 СВ 1 20 км 4/0
[Ac cast]
+32.9 +11.2 27 +33 +43 жарко 1006.0 971.9
15 16.06 СВ 2 20 км 4/0
[Ci fib]
+32.7 +12.4 29 +33 +34 жарко 1004.5 970.4
18 16.06 Ю 1 10 км 9/0
[Ac cuf]
+29.1 +14.0 40 +31 +31 жарко 1006.4 971.8 +33.8
21 16.06 З 1 10 км {дождь} 5/0
[Ac und]
+25.2 +16.8 60 +29 +29 душно 1007.2 972.3
00 17.06 С 1 10 км ясно +21.1 +15.4 70 +24 +24 комфорт 1007.1 971.7
03 17.06 З 1 50 км ясно +23.4 +15.4 61 +28 +30 душно 1007.7 972.5
06 17.06 С 1 50 км 3/3 1000 м
[Cu med, cong Ac trans]
+28.1 +15.4 46 +31 +42 душно 1007.8 973.1 +20.0 0.0
09 17.06 С 1 50 км 5/5 1000 м
[Cu med, cong]
+31.4 +15.7 39 +34 +46 душно 1006.2 972.1
12 17.06 В 1 20 км {гроза} 6/6 1000 м
[Sc]
+32.1 +15.1 36 +34 +40 душно 1004.2 970.1
15 17.06 З 1 10 км гроза, ливневой дождь 10/10 1000 м
[Cb cap]
+30.2 +15.5 41 +33 +33 душно 1006.4 972.0
18 17.06 ЮВ 1 10 км {гроза, ливн. осадки} 3/0
[Ac cuf]
+25.2 +13.8 49 +27 +27 жарко 1007.0 972.1 +33.8 0.0

 

Местоположение метеостанции Гянджа (Азербайджан): широта 40.72 долгота 46.42 высота над уровнем моря 311 м.

В архиве по умолчанию представлена погода в Гяндже за последнюю неделю. Архивные данные за месяц целиком и за предыдущие месяцы, начиная с января 2011 года, Вы можете получить, выбрав интересующий диапазон дат из раскрывающегося списка и нажав кнопку "Ввод!".


*Определитесь, кто Вы:
робот инопланетянин человек

Внимание! Время в таблицах - всемирное. Для получения местного времени необходимо прибавить поправку, которая равна 4 ч.

Смотрите также архив погоды в соседних городах и на ближайших метеорологических станциях:

Погода в Гадабухте (Азербайджан) (53 км)
Погода в Евлахе (Азербайджан) (63 км)
Погода в Барде (Азербайджан) (72 км)
Погода в Шеках (Азербайджан) (84 км)
Погода в Закатале (Азербайджан) (107 км)
Погода в Иджеване (Армения) (108 км)
Погода в Геокчае (Азербайджан) (112 км)
Погода в Камо (Армения) (117 км)
Погода в Севане (Армения) (121 км)
Погода в Габале (Азербайджан) (125 км)

Пояснения к столбцам:

Ветер - указаны скорость ветра в м/с - средняя за 10 мин, порывы в срок и между сроками (в фигурных скобках) и направление, откуда дует ветер: С - северный, СВ - северо-восточный, В - восточный, ЮВ - юго-восточный, Ю - южный, ЮЗ - юго-западный, З - западный, СЗ - северо-западный.
Видимость - горизонтальная дальность видимости в метрах или километрах. При видимости от 1 до 10 км при отсутствии осадков обычно наблюдается дымка, при ухудшении видимости до 1 км и менее - туман. В сухую погоду видимость может ухудшаться дымом, пылью или мглою.
Явления - указаны атмосферные явления, наблюдавшиеся в срок или в последний час перед сроком; фигурными скобками обозначены явления, наблюдавшиеся между сроками (за 1-3 часа до срока); квадратными скобками обозначены град или гололедные отложения с указанием их диаметра в мм.
Облачность - указаны через наклонную черту общая и нижняя облачность в баллах и высота нижней границы облаков в метрах; квадратными скобками обозначены формы облаков: Ci - перистые, Cs - перисто-слоистые, Cc - перисто-кучевые, Ac - высококучевые, As - высокослоистые, Sc - слоисто-кучевые, Ns - слоисто-дождевые, Cu - кучевые, Cb - кучево-дождевые. Подробнее классификацию облаков см. в Атласе облаков (PDF).
T - Температура воздуха - температура, измеренная на высоте 2 м над землей.
Td - Температура точки росы - температура, при понижении до которой содержащийся в воздухе водяной пар достигнет насыщения.
f - Относительная влажность воздуха - влажноcть воздуха, измеренная на высоте 2 м над землей.
Te - Эффективная температура - температура, которую ощущает одетый по сезону человек в тени. Характеристика душности погоды. При расчете учитывается влияние влажности воздуха и скорости ветра на теплоощущения человека.
Tes - Эффективная температура на солнце - температура, которую ощущает человек, с поправкой на солнечный нагрев. Характеристика знойности погоды. Зависит от высоты солнца над горизонтом, облачности и скорости ветра. Ночью, в пасмурную погоду, а также при ветре 12 м/с и более поправка равна нулю.
P - Атмосферное давление - приведенное к уровню моря атмосферное давление.
Po - Атмосферное давление - измеренное на уровне метеостанции атмосферное давление.
Tmin - Минимальная температура - минимум температуры воздуха на высоте 2 м над землей.
Tmax - Максимальная температура - максимум температуры воздуха на высоте 2 м над землей.
R - Количество осадков - Количество выпавших осадков за период времени, мм. При наведении курсора мыши на число - период времени, за который выпало указанное количество осадков.
R24 - Количество осадков - Количество выпавших осадков за 24 часа, мм.
S - Снежный покров - Высота снежного покрова, см. При наведении курсора мыши на число - состояние снежного покрова и степень покрытия местности в баллах.